170  
ASUS45 KBOU 020310  
RWRCO  
 
WEATHER ROUNDUP FOR COLORADO  
NATIONAL WEATHER SERVICE DENVER/BOULDER CO  
900 PM MDT SUN AUG 01 2021  
 
NOTE: "FAIR" INDICATES FEW OR NO CLOUDS BELOW 12000 FEET WITH NO  
SIGNIFICANT WEATHER AND/OR S TO VISIBILITY
.  
 
COZ001>005-013-030-031-020400-   
..NORTHWEST COLORADO
 
 
 
CITY SKY/WX TMP DP RH WIND PRES REMARKS
 
CRAIG FAIR 68 52 56 CALM 30.35R  
HAYDEN FAIR 68 54 60 NW3 30.39R  
MEEKER FAIR 65 55 70 E3 30.37R  
RANGELY FAIR 73 57 56 NE6 30.27S  
RABBIT EARS PA NOT AVBL  
STEAMBOAT SPGS CLOUDY 67 54 63 CALM 30.39R  
WALDEN FAIR 61 43 51 NE8 30.48S  

 
 
COZ006>008-011-020400-   
..WEST CENTRAL VALLEYS
 
 
 
CITY SKY/WX TMP DP RH WIND PRES REMARKS
 
GRAND JUNCTION FAIR 73 57 57 SE22 30.26R  
MONTROSE LGT RAIN 63 60 90 S7 30.39S  
EAGLE FAIR 67 53 61 CALM 30.42R  
RIFLE FAIR 69 58 67 NE6 30.33R  
DELTA HVY RAIN 68 64 84 MISG 30.36R  
NUCLA NOT AVBL  

 
 
COZ017>023-064>068-020400-   
..SOUTHWEST COLORADO
 
 
 
CITY SKY/WX TMP DP RH WIND PRES REMARKS
 
DURANGO CLOUDY 69 50 50 N8 30.41R  
CORTEZ FAIR 73 55 53 N7 30.33R  
PAGOSA SPRINGS CLOUDY 68 50 52 NE3 30.48R  
TELLURIDE CLOUDY 57 52 82 S5 30.61R  
WOLF CREEK PAS CLOUDY 45 45 100 CALM 30.83R FOG  

 
 
COZ009-010-012-014-032>034-037-058>063-020400-   
..CENTRAL COLORADO
 
 
 
CITY SKY/WX TMP DP RH WIND PRES REMARKS
 
ASPEN MOCLDY 59 54 83 SE6 30.48F  
BUENA VISTA FAIR 59 49 69 CALM 30.52S  
COPPER MTN CLOUDY 52 46 82 CALM 30.79S  
BERTHOUD PASS MOCLDY 39 28 65 SE13 30.81S HAZE  
DAKOTA HILL CLOUDY 45 41 87 S5 30.72S  
COTTONWOOD PAS CLOUDY 54 45 71 W6 30.64S  
GUNNISON MOCLDY 58 56 93 CALM 30.53R  
GRANBY MOCLDY 63 46 53 S7 30.51R  
KREMMLING FAIR 64 50 59 SW5 30.46R  
LEADVILLE FAIR 51 50 96 CALM 30.64R  
MONARCH PASS MOCLDY 45 41 87 NE3 30.88R  
SALIDA CLOUDY 62 55 79 SW3 30.57S  
SUNLIGHT CLOUDY 48 45 87 S7 30.71S  
WILKERSON PASS MOCLDY 46 43 87 NE8G16 30.76S  

 
 
COZ069>075-020400-   
..SAN LUIS VALLEY/SANGRE DE CRISTO MOUNTAINS
 
 
 
CITY SKY/WX TMP DP RH WIND PRES REMARKS
 
ALAMOSA CLOUDY 61 53 75 N10 30.49R  
DEL NORTE CLOUDY 57 55 92 CALM 30.53R  
LA VETA PASS CLOUDY 45 45 100 E3 30.66S FOG  
SAGUACHE LGT RAIN 55 54 94 NW9 30.52R  

 
 
COZ035-036-038>040-020400-   
..NORTHERN COLORADO FRONT RANGE
 
 
 
CITY SKY/WX TMP DP RH WIND PRES REMARKS
 
DENVER INTL AP CLOUDY 71 50 47 NE7 30.33S  
AURORA MOCLDY 71 52 50 S6 30.36R  
WATKINS NOT AVBL  
ERIE CLOUDY 71 55 57 CALM 30.33R  
BOULDER CLOUDY 72 52 49 CALM 30.34R  
CENTENNIAL MOCLDY 68 51 54 S7 30.37R  
BROOMFIELD MOCLDY 73 45 35 N6 30.37R  
FORT COLLINS FAIR 72 47 40 E7 30.33R  
LONGMONT CLOUDY 75 48 38 CALM 30.34S  

 
 
COZ041-046-047-076>085-087-088-020400-   
..PIKES PEAK/PALMER DIVIDE AND SOUTHERN FOOTHILLS
 
 
 
CITY SKY/WX TMP DP RH WIND PRES REMARKS
 
COLO. SPRINGS FAIR 64 52 64 S8 30.43R  
A. F. ACADEMY MOCLDY 64 52 66 S7 30.42S  
SCHRIEVER AFB NOT AVBL  
CHEYENNE MTN FAIR 62 51 68 CALM 30.36F  
ELLICOTT FAIR 64 49 57 S7 30.43R  
FALCON FAIR 62 50 65 SW6 30.48R  
FORT CARSON MOCLDY 65 52 62 SW7 30.39R  
LIMON FAIR 66 48 52 SE6 30.37R  
MONUMENT HILL FAIR 57 50 77 S8 30.48S  
CANON CITY FAIR 68 55 64 CALM 30.37S  
WALSENBURG NOT AVBL  
TRINIDAD FAIR 61 55 81 S6 30.42R  

 
 
COZ042>045-048>051-090-091-020400-   
..NORTHEAST COLORADO
 
 
 
CITY SKY/WX TMP DP RH WIND PRES REMARKS
 
GREELEY FAIR 69 56 62 NE5 30.32R  
AKRON FAIR 68 42 38 SE7 30.32R  
BURLINGTON FAIR 68 53 58 SE8 30.32R  
WRAY FAIR 72 46 40 E8 30.28R  
YUMA FAIR 64 39 39 SE6 30.30R  
STERLING FAIR 73 46 38 MISG 30.28R  
HOLYOKE FAIR 68 57 68 E8 30.29R  
FORT MORGAN FAIR 69 49 48 E6 30.31R  

 
 
COZ086-089-092>099-020400-   
..SOUTHEAST COLORADO
 
 
 
CITY SKY/WX TMP DP RH WIND PRES REMARKS
 
PUEBLO FAIR 71 55 56 S5 30.33S  
LA JUNTA FAIR 76 55 48 S3 30.31S  
LAMAR CLOUDY 73 60 63 S10 30.27R  
SPRINGFIELD N/A 68 60 75 S5 30.34R  

 
 
 
CLICK HERE TO GO TO PREVIOUS BULLETINS.

The Nexlab CO Page Main Text Page